Location: Ethel Rock
(53.4667°N, 4.5667°W)
Time: 05:15:39
(UTC+00:00)

USA 238 DEB - Pass Details

Date: 24 October 2020
Orbit: 1001 x 1211 km, 63.5° (Epoch: 22 November)

Event Time Altitude Azimuth Distance (km) Brightness Sun altitude
Exits shadow 05:32:47 13° 240° (WSW) 2,584 5.2 -14.0°
Maximum altitude 05:38:46 71° 323° (NW) 1,126 3.7 -13.1°
Drops below altitude 10° 05:45:48 10° 48° (NE) 2,976 6.7 -12.0°
Sets 05:48:34 0° 51° (NE) 3,968 7.5 -11.6°
